QPF
0.00 0.00 0.00 0.00 0.00 0.00 0.00 0.00 0.00 0.00 0.00 0.00 0.00 0.00 0.00 0.00 0.00 0.00 0.00 0.00 0.00 0.00 0.00 0.00 0.00 0.00 0.01 0.01 0.01 0.01 0.02 0.03 0.03 0.02 0.02 0.01 0.01 0.01 0.00 0.00 0.00 0.00 0.00 0.00 0.00 0.00 0.00 0.00 0.00
0.00 0.00 0.00 0.00 0.00 0.00 0.00 0.00 0.00 0.00 0.00 0.00 0.00 0.00 0.00 0.00 0.00 0.00 0.00 0.00 0.00 0.00 0.00 0.00 0.00 0.00 0.01 0.01 0.01 0.01 0.02 0.02 0.02 0.01 0.01 0.01 0.01 0.00 0.00 0.00 0.00 0.00 0.00 0.00 0.00 0.00 0.00 0.00 0.00
0.00 0.00 0.00 0.00 0.00 0.00 0.00 0.00 0.00 0.00 0.00 0.00 0.00 0.00 0.00 0.00 0.00 0.00 0.00 0.00 0.00 0.00 0.00 0.00 0.00 0.00 0.01 0.01 0.01 0.01 0.01 0.01 0.01 0.00 0.00 0.00 0.00 0.00 0.00 0.00 0.00 0.00 0.00 0.00 0.00 0.00 0.00 0.00 0.00
0.00 0.00 0.00 0.00 0.00 0.00 0.00 0.00 0.00 0.00 0.00 0.00 0.00 0.00 0.00 0.00 0.00 0.00 0.00 0.00 0.00 0.00 0.00 0.00 0.00 0.00 0.00 0.00 0.01 0.01 0.01 0.00 0.00 0.00 0.00 0.00 0.00 0.00 0.00 0.00 0.00 0.00 0.00 0.00 0.00 0.00 0.00 0.00 0.00
0.00 0.00 0.00 0.00 0.00 0.00 0.00 0.00 0.00 0.00 0.00 0.00 0.00 0.00 0.00 0.00 0.00 0.00 0.00 0.00 0.00 0.00 0.00 0.00 0.00 0.00 0.00 0.00 0.00 0.00 0.00 0.00 0.00 0.00 0.00 0.00 0.00 0.00 0.00 0.00 0.00 0.00 0.00 0.00 0.00 0.00 0.00 0.00 0.00
0.00 0.00 0.00 0.00 0.00 0.00 0.00 0.00 0.00 0.00 0.00 0.00 0.00 0.00 0.00 0.00 0.00 0.00 0.00 0.00 0.00 0.00 0.00 0.00 0.00 0.00 0.00 0.00 0.00 0.00 0.00 0.00 0.00 0.00 0.00 0.00 0.00 0.00 0.00 0.00 0.00 0.00 0.00 0.00 0.00 0.00 0.00 0.00 0.00
0.00 0.00 0.00 0.00 0.00 0.00 0.00 0.00 0.00 0.00 0.00 0.00 0.00 0.00 0.00 0.00 0.00 0.00 0.00 0.00 0.00 0.00 0.00 0.00 0.00 0.00 0.00 0.00 0.00 0.00 0.00 0.00 0.00 0.00 0.00 0.00 0.00 0.00 0.00 0.00 0.00 0.00 0.00 0.00 0.00 0.00 0.00 0.00 0.00
0.00 0.00 0.00 0.00 0.00 0.00 0.00 0.00 0.00 0.00 0.00 0.00 0.00 0.00 0.00 0.00 0.00 0.00 0.00 0.00 0.00 0.00 0.00 0.00 0.00 0.00 0.00 0.00 0.00 0.00 0.00 0.00 0.00 0.00 0.00 0.00 0.00 0.00 0.00 0.00 0.00 0.00 0.00 0.00 0.00 0.00 0.00 0.00 0.00
0.00 0.00 0.00 0.00 0.00 0.00 0.00 0.00 0.00 0.00 0.00 0.00 0.00 0.00 0.00 0.00 0.00 0.00 0.00 0.00 0.00 0.00 0.00 0.00 0.00 0.00 0.00 0.00 0.00 0.00 0.00 0.00 0.00 0.00 0.00 0.00 0.00 0.00 0.00 0.00 0.00 0.00 0.00 0.00 0.00 0.00 0.00 0.00 0.00
0.00 0.00 0.00 0.00 0.00 0.00 0.00 0.00 0.00 0.00 0.00 0.00 0.00 0.00 0.00 0.00 0.00 0.00 0.00 0.00 0.00 0.00 0.00 0.00 0.00 0.00 0.00 0.00 0.00 0.00 0.00 0.00 0.00 0.00 0.00 0.00 0.00 0.00 0.00 0.00 0.00 0.00 0.00 0.00 0.00 0.00 0.00 0.00 0.00
0.00 0.00 0.00 0.00 0.00 0.00 0.00 0.00 0.00 0.00 0.00 0.00 0.00 0.00 0.00 0.00 0.00 0.00 0.00 0.00 0.00 0.00 0.00 0.00 0.00 0.00 0.00 0.00 0.00 0.00 0.00 0.00 0.00 0.00 0.00 0.00 0.00 0.00 0.00 0.00 0.00 0.00 0.00 0.00 0.00 0.00 0.00 0.00 0.00
0.00 0.00 0.00 0.00 0.00 0.00 0.00 0.00 0.00 0.00 0.00 0.00 0.00 0.00 0.00 0.00 0.00 0.00 0.00 0.00 0.00 0.00 0.00 0.00 0.00 0.00 0.00 0.00 0.00 0.00 0.00 0.00 0.00 0.00 0.00 0.00 0.00 0.00 0.00 0.00 0.00 0.00 0.00 0.00 0.00 0.00 0.00 0.00 0.00
0.00 0.00 0.00 0.00 0.00 0.00 0.00 0.00 0.00 0.00 0.00 0.00 0.00 0.00 0.00 0.00 0.00 0.00 0.00 0.00 0.00 0.00 0.00 0.00 0.00 0.00 0.00 0.00 0.00 0.00 0.00 0.00 0.00 0.00 0.00 0.00 0.00 0.00 0.00 0.00 0.00 0.00 0.00 0.00 0.00 0.00 0.00 0.00 0.00
0.00 0.00 0.00 0.00 0.00 0.00 0.00 0.00 0.00 0.00 0.00 0.00 0.00 0.00 0.00 0.00 0.00 0.00 0.00 0.00 0.00 0.00 0.00 0.00 0.00 0.00 0.00 0.00 0.00 0.00 0.00 0.00 0.00 0.00 0.00 0.00 0.00 0.00 0.00 0.00 0.00 0.00 0.00 0.00 0.00 0.00 0.00 0.00 0.00
0.00 0.00 0.00 0.00 0.00 0.00 0.00 0.00 0.00 0.00 0.00 0.00 0.00 0.00 0.00 0.00 0.00 0.00 0.00 0.00 0.00 0.00 0.00 0.00 0.00 0.00 0.00 0.00 0.00 0.00 0.00 0.00 0.00 0.00 0.00 0.00 0.00 0.00 0.00 0.00 0.00 0.00 0.00 0.00 0.00 0.00 0.00 0.00 0.00
0.00 0.00 0.00 0.00 0.00 0.00 0.00 0.00 0.00 0.00 0.00 0.00 0.00 0.00 0.00 0.00 0.00 0.00 0.00 0.00 0.00 0.00 0.00 0.00 0.00 0.00 0.00 0.00 0.00 0.00 0.00 0.00 0.00 0.00 0.00 0.00 0.00 0.00 0.00 0.00 0.00 0.00 0.00 0.00 0.00 0.00 0.00 0.00 0.00
0.00 0.00 0.00 0.00 0.00 0.00 0.00 0.00 0.00 0.00 0.00 0.00 0.00 0.00 0.00 0.00 0.00 0.00 0.00 0.00 0.00 0.00 0.00 0.00 0.00 0.00 0.00 0.00 0.00 0.00 0.00 0.00 0.00 0.00 0.00 0.00 0.00 0.00 0.00 0.00 0.00 0.00 0.00 0.00 0.00 0.00 0.00 0.00 0.00
0.00 0.00 0.00 0.00 0.00 0.00 0.00 0.00 0.00 0.00 0.00 0.00 0.00 0.00 0.00 0.00 0.00 0.00 0.00 0.00 0.00 0.00 0.00 0.00 0.00 0.00 0.00 0.00 0.00 0.00 0.00 0.00 0.00 0.00 0.00 0.00 0.00 0.00 0.00 0.00 0.00 0.00 0.00 0.00 0.00 0.00 0.00 0.00 0.00
0.00 0.00 0.00 0.00 0.00 0.00 0.00 0.00 0.00 0.00 0.00 0.00 0.00 0.00 0.00 0.00 0.00 0.00 0.00 0.00 0.00 0.00 0.00 0.00 0.00 0.00 0.00 0.00 0.00 0.00 0.00 0.00 0.00 0.00 0.00 0.00 0.00 0.00 0.00 0.00 0.00 0.00 0.00 0.00 0.00 0.00 0.00 0.00 0.00
0.00 0.00 0.00 0.00 0.00 0.00 0.00 0.00 0.00 0.00 0.00 0.00 0.00 0.00 0.00 0.00 0.00 0.00 0.00 0.00 0.00 0.00 0.00 0.00 0.00 0.00 0.00 0.00 0.00 0.00 0.00 0.00 0.00 0.00 0.00 0.00 0.00 0.00 0.00 0.00 0.00 0.00 0.00 0.00 0.00 0.00 0.00 0.00 0.00
0.00 0.00 0.00 0.00 0.00 0.00 0.00 0.00 0.00 0.00 0.00 0.00 0.00 0.00 0.00 0.00 0.00 0.00 0.00 0.00 0.00 0.00 0.00 0.00 0.00 0.00 0.00 0.00 0.00 0.00 0.00 0.00 0.00 0.00 0.00 0.00 0.00 0.00 0.00 0.00 0.00 0.00 0.00 0.00 0.00 0.00 0.00 0.00 0.00
0.00 0.00 0.00 0.00 0.00 0.00 0.00 0.00 0.00 0.00 0.00 0.00 0.00 0.00 0.00 0.00 0.00 0.00 0.00 0.00 0.00 0.00 0.00 0.00 0.00 0.00 0.00 0.00 0.00 0.00 0.00 0.00 0.00 0.00 0.00 0.00 0.00 0.00 0.00 0.00 0.00 0.00 0.00 0.00 0.00 0.00 0.00 0.00 0.00
0.00 0.00 0.00 0.00 0.00 0.00 0.00 0.00 0.00 0.00 0.00 0.00 0.00 0.00 0.00 0.00 0.00 0.00 0.00 0.00 0.00 0.00 0.00 0.00 0.00 0.00 0.00 0.00 0.00 0.00 0.00 0.00 0.00 0.00 0.00 0.00 0.00 0.00 0.00 0.00 0.00 0.00 0.00 0.00 0.00 0.00 0.00 0.00 0.00
0.00 0.00 0.00 0.00 0.00 0.00 0.00 0.00 0.00 0.00 0.00 0.00 0.00 0.00 0.00 0.00 0.00 0.00 0.00 0.00 0.00 0.00 0.00 0.00 0.00 0.00 0.00 0.00 0.00 0.00 0.00 0.00 0.00 0.00 0.00 0.00 0.00 0.00 0.00 0.00 0.00 0.00 0.00 0.00 0.00 0.00 0.00 0.00 0.00
0.00 0.00 0.00 0.00 0.00 0.00 0.00 0.00 0.00 0.00 0.00 0.00 0.00 0.00 0.00 0.00 0.00 0.00 0.00 0.00 0.00 0.00 0.00 0.00 0.00 0.00 0.00 0.00 0.00 0.00 0.00 0.00 0.00 0.00 0.00 0.00 0.00 0.00 0.00 0.00 0.00 0.00 0.00 0.00 0.00 0.00 0.00 0.00 0.00
0.00 0.00 0.00 0.00 0.00 0.00 0.00 0.00 0.00 0.00 0.00 0.00 0.00 0.00 0.00 0.00 0.00 0.00 0.00 0.00 0.00 0.00 0.00 0.00 0.00 0.00 0.00 0.00 0.00 0.00 0.00 0.00 0.00 0.00 0.00 0.00 0.00 0.00 0.00 0.00 0.00 0.00 0.00 0.00 0.00 0.00 0.00 0.00 0.00
0.00 0.00 0.00 0.00 0.00 0.00 0.00 0.00 0.00 0.00 0.00 0.00 0.00 0.00 0.00 0.00 0.00 0.00 0.00 0.00 0.00 0.00 0.00 0.00 0.00 0.00 0.00 0.00 0.00 0.00 0.00 0.00 0.00 0.00 0.00 0.00 0.00 0.00 0.00 0.00 0.00 0.00 0.00 0.00 0.00 0.00 0.00 0.00 0.00
0.00 0.00 0.00 0.00 0.01 0.00 0.00 0.00 0.00 0.00 0.00 0.00 0.00 0.00 0.00 0.00 0.00 0.00 0.00 0.00 0.00 0.00 0.00 0.00 0.00 0.00 0.00 0.00 0.00 0.00 0.00 0.00 0.00 0.00 0.00 0.00 0.00 0.00 0.00 0.00 0.00 0.00 0.00 0.00 0.00 0.00 0.00 0.00 0.00
0.00 0.00 0.00 0.00 0.01 0.01 0.01 0.00 0.00 0.00 0.00 0.00 0.00 0.00 0.00 0.00 0.00 0.00 0.00 0.00 0.00 0.00 0.00 0.00 0.00 0.00 0.00 0.00 0.00 0.00 0.00 0.00 0.00 0.00 0.00 0.00 0.00 0.00 0.00 0.00 0.00 0.00 0.00 0.00 0.00 0.00 0.00 0.00 0.00
0.00 0.00 0.00 0.00 0.01 0.01 0.02 0.01 0.00 0.00 0.00 0.00 0.00 0.00 0.00 0.00 0.00 0.00 0.00 0.00 0.00 0.00 0.00 0.00 0.00 0.00 0.00 0.00 0.00 0.00 0.00 0.00 0.00 0.00 0.00 0.00 0.00 0.00 0.00 0.00 0.00 0.00 0.00 0.00 0.00 0.00 0.00 0.00 0.00
MSLP
1015.68 1016.50 1017.44 1018.37 1019.15 1019.69 1019.93 1019.89 1019.62 1019.21 1018.77 1018.37 1018.07 1017.85 1017.69 1017.53 1017.32 1017.03 1016.67 1016.28 1015.91 1015.64 1015.50 1015.53 1015.72 1016.02 1016.36 1016.70 1016.99 1017.20 1017.36 1017.48 1017.61 1017.78 1018.01 1018.29 1018.60 1018.91 1019.18 1019.37 1019.48 1019.52 1019.51 1019.48 1019.46 1019.48 1019.54 1019.64 1019.75
1016.22 1017.16 1018.17 1019.09 1019.79 1020.17 1020.21 1019.93 1019.41 1018.77 1018.12 1017.57 1017.15 1016.87 1016.69 1016.55 1016.40 1016.20 1015.95 1015.68 1015.43 1015.28 1015.25 1015.37 1015.62 1015.96 1016.34 1016.70 1017.00 1017.24 1017.42 1017.57 1017.74 1017.96 1018.23 1018.54 1018.87 1019.19 1019.45 1019.63 1019.73 1019.77 1019.76 1019.74 1019.74 1019.77 1019.84 1019.94 1020.05
1016.85 1017.86 1018.87 1019.72 1020.28 1020.48 1020.31 1019.81 1019.08 1018.26 1017.47 1016.80 1016.32 1016.01 1015.84 1015.73 1015.64 1015.53 1015.37 1015.21 1015.08 1015.03 1015.10 1015.30 1015.61 1015.99 1016.39 1016.76 1017.08 1017.32 1017.52 1017.69 1017.89 1018.12 1018.40 1018.72 1019.05 1019.35 1019.60 1019.77 1019.87 1019.91 1019.92 1019.93 1019.96 1020.03 1020.13 1020.25 1020.37
1017.53 1018.55 1019.49 1020.21 1020.60 1020.61 1020.24 1019.55 1018.67 1017.73 1016.87 1016.17 1015.68 1015.38 1015.24 1015.19 1015.16 1015.11 1015.04 1014.96 1014.92 1014.96 1015.10 1015.35 1015.70 1016.11 1016.51 1016.88 1017.19 1017.44 1017.64 1017.82 1018.03 1018.27 1018.55 1018.85 1019.16 1019.44 1019.66 1019.82 1019.92 1019.97 1020.02 1020.07 1020.16 1020.28 1020.43 1020.58 1020.72
1018.19 1019.15 1019.97 1020.53 1020.73 1020.54 1020.00 1019.18 1018.22 1017.25 1016.39 1015.72 1015.28 1015.04 1014.96 1014.96 1014.98 1014.98 1014.97 1014.95 1014.96 1015.05 1015.23 1015.51 1015.87 1016.27 1016.66 1017.02 1017.31 1017.55 1017.75 1017.94 1018.16 1018.40 1018.68 1018.97 1019.25 1019.51 1019.71 1019.85 1019.95 1020.03 1020.11 1020.22 1020.36 1020.54 1020.73 1020.92 1021.08
1018.76 1019.62 1020.27 1020.64 1020.64 1020.28 1019.61 1018.73 1017.76 1016.82 1016.04 1015.47 1015.12 1014.97 1014.96 1015.01 1015.07 1015.11 1015.12 1015.13 1015.17 1015.27 1015.46 1015.73 1016.07 1016.44 1016.81 1017.13 1017.41 1017.64 1017.84 1018.05 1018.27 1018.53 1018.82 1019.11 1019.38 1019.62 1019.80 1019.93 1020.04 1020.13 1020.24 1020.40 1020.59 1020.81 1021.04 1021.26 1021.43
1019.18 1019.88 1020.36 1020.52 1020.34 1019.84 1019.10 1018.20 1017.28 1016.45 1015.80 1015.37 1015.14 1015.09 1015.15 1015.24 1015.33 1015.38 1015.40 1015.40 1015.43 1015.52 1015.69 1015.94 1016.24 1016.57 1016.89 1017.19 1017.44 1017.67 1017.89 1018.12 1018.38 1018.67 1018.99 1019.30 1019.58 1019.81 1019.99 1020.12 1020.22 1020.32 1020.45 1020.63 1020.85 1021.10 1021.35 1021.59 1021.77
1019.39 1019.94 1020.22 1020.19 1019.86 1019.27 1018.49 1017.63 1016.81 1016.12 1015.61 1015.32 1015.23 1015.27 1015.38 1015.50 1015.60 1015.64 1015.64 1015.62 1015.64 1015.71 1015.85 1016.06 1016.33 1016.61 1016.90 1017.16 1017.40 1017.64 1017.88 1018.15 1018.46 1018.81 1019.17 1019.52 1019.84 1020.09 1020.28 1020.40 1020.51 1020.61 1020.74 1020.92 1021.14 1021.40 1021.66 1021.90 1022.08
1019.40 1019.78 1019.89 1019.70 1019.25 1018.59 1017.82 1017.03 1016.32 1015.77 1015.41 1015.25 1015.25 1015.36 1015.51 1015.63 1015.71 1015.73 1015.70 1015.67 1015.67 1015.72 1015.85 1016.04 1016.28 1016.53 1016.79 1017.04 1017.28 1017.53 1017.81 1018.14 1018.51 1018.92 1019.35 1019.75 1020.11 1020.40 1020.61 1020.75 1020.86 1020.96 1021.08 1021.24 1021.45 1021.70 1021.95 1022.18 1022.36
1019.24 1019.47 1019.42 1019.10 1018.57 1017.88 1017.13 1016.42 1015.81 1015.38 1015.14 1015.07 1015.13 1015.26 1015.40 1015.51 1015.55 1015.54 1015.49 1015.44 1015.44 1015.50 1015.63 1015.82 1016.06 1016.32 1016.58 1016.84 1017.09 1017.37 1017.69 1018.06 1018.49 1018.96 1019.46 1019.93 1020.34 1020.68 1020.93 1021.10 1021.22 1021.32 1021.44 1021.58 1021.77 1021.99 1022.22 1022.44 1022.61
1018.95 1019.05 1018.88 1018.47 1017.88 1017.19 1016.48 1015.83 1015.31 1014.96 1014.78 1014.74 1014.80 1014.91 1015.00 1015.06 1015.05 1015.00 1014.94 1014.90 1014.91 1015.00 1015.17 1015.40 1015.68 1015.97 1016.27 1016.55 1016.84 1017.15 1017.50 1017.91 1018.39 1018.91 1019.46 1019.99 1020.46 1020.86 1021.16 1021.37 1021.53 1021.64 1021.77 1021.91 1022.08 1022.28 1022.48 1022.68 1022.84
1018.62 1018.61 1018.35 1017.88 1017.27 1016.58 1015.90 1015.29 1014.81 1014.49 1014.32 1014.25 1014.26 1014.29 1014.31 1014.28 1014.22 1014.13 1014.05 1014.03 1014.08 1014.23 1014.46 1014.77 1015.12 1015.49 1015.84 1016.18 1016.52 1016.86 1017.24 1017.68 1018.19 1018.74 1019.32 1019.90 1020.43 1020.88 1021.25 1021.52 1021.73 1021.89 1022.04 1022.19 1022.36 1022.55 1022.74 1022.92 1023.06
1018.32 1018.22 1017.90 1017.39 1016.77 1016.09 1015.43 1014.84 1014.36 1014.01 1013.78 1013.64 1013.55 1013.47 1013.38 1013.25 1013.12 1012.99 1012.90 1012.90 1013.00 1013.22 1013.54 1013.95 1014.40 1014.86 1015.31 1015.73 1016.13 1016.52 1016.93 1017.38 1017.89 1018.45 1019.05 1019.65 1020.22 1020.73 1021.17 1021.52 1021.81 1022.04 1022.24 1022.42 1022.61 1022.79 1022.97 1023.14 1023.28
1018.09 1017.93 1017.56 1017.04 1016.42 1015.75 1015.09 1014.49 1013.97 1013.55 1013.22 1012.96 1012.73 1012.51 1012.29 1012.07 1011.85 1011.68 1011.58 1011.59 1011.73 1012.02 1012.43 1012.94 1013.51 1014.09 1014.65 1015.17 1015.65 1016.10 1016.54 1017.00 1017.51 1018.06 1018.65 1019.26 1019.86 1020.43 1020.94 1021.38 1021.76 1022.08 1022.35 1022.59 1022.81 1023.01 1023.19 1023.35 1023.47
1017.94 1017.73 1017.35 1016.83 1016.22 1015.56 1014.89 1014.25 1013.66 1013.14 1012.68 1012.26 1011.89 1011.53 1011.18 1010.85 1010.55 1010.32 1010.20 1010.21 1010.38 1010.71 1011.19 1011.80 1012.48 1013.18 1013.86 1014.49 1015.06 1015.58 1016.07 1016.55 1017.05 1017.59 1018.17 1018.78 1019.40 1020.01 1020.59 1021.13 1021.60 1022.01 1022.37 1022.68 1022.94 1023.17 1023.36 1023.52 1023.64
1017.86 1017.62 1017.24 1016.73 1016.14 1015.48 1014.79 1014.10 1013.42 1012.77 1012.17 1011.61 1011.08 1010.58 1010.12 1009.69 1009.32 1009.03 1008.87 1008.85 1009.02 1009.36 1009.88 1010.55 1011.31 1012.12 1012.92 1013.67 1014.36 1014.97 1015.52 1016.03 1016.54 1017.07 1017.64 1018.25 1018.88 1019.53 1020.18 1020.79 1021.35 1021.86 1022.30 1022.67 1022.99 1023.25 1023.46 1023.62 1023.74
1017.78 1017.54 1017.18 1016.72 1016.15 1015.50 1014.78 1014.02 1013.24 1012.46 1011.72 1011.01 1010.35 1009.73 1009.17 1008.66 1008.22 1007.88 1007.67 1007.61 1007.73 1008.05 1008.57 1009.25 1010.07 1010.95 1011.86 1012.72 1013.52 1014.23 1014.87 1015.44 1015.98 1016.52 1017.08 1017.69 1018.34 1019.02 1019.71 1020.39 1021.03 1021.61 1022.12 1022.55 1022.92 1023.21 1023.44 1023.61 1023.75
1017.68 1017.47 1017.16 1016.74 1016.21 1015.57 1014.82 1013.98 1013.09 1012.19 1011.30 1010.46 1009.68 1008.98 1008.35 1007.79 1007.31 1006.92 1006.65 1006.53 1006.59 1006.85 1007.32 1007.98 1008.81 1009.73 1010.71 1011.67 1012.57 1013.39 1014.12 1014.76 1015.35 1015.92 1016.51 1017.12 1017.79 1018.49 1019.21 1019.94 1020.62 1021.26 1021.82 1022.30 1022.70 1023.02 1023.28 1023.48 1023.64
1017.51 1017.36 1017.12 1016.78 1016.29 1015.66 1014.87 1013.95 1012.95 1011.91 1010.90 1009.94 1009.08 1008.31 1007.64 1007.07 1006.57 1006.16 1005.85 1005.67 1005.65 1005.83 1006.22 1006.82 1007.61 1008.54 1009.55 1010.57 1011.56 1012.47 1013.28 1014.00 1014.65 1015.27 1015.88 1016.53 1017.21 1017.93 1018.67 1019.42 1020.14 1020.80 1021.39 1021.90 1022.33 1022.68 1022.97 1023.20 1023.40
1017.26 1017.20 1017.07 1016.81 1016.37 1015.74 1014.90 1013.89 1012.77 1011.61 1010.47 1009.42 1008.49 1007.69 1007.02 1006.46 1005.98 1005.58 1005.25 1005.03 1004.95 1005.04 1005.34 1005.85 1006.57 1007.46 1008.46 1009.50 1010.54 1011.51 1012.39 1013.18 1013.89 1014.56 1015.21 1015.88 1016.58 1017.31 1018.07 1018.83 1019.56 1020.24 1020.84 1021.37 1021.82 1022.19 1022.51 1022.80 1023.05
1016.95 1017.01 1016.99 1016.81 1016.42 1015.78 1014.88 1013.78 1012.54 1011.25 1010.00 1008.87 1007.89 1007.09 1006.45 1005.94 1005.51 1005.16 1004.85 1004.62 1004.50 1004.52 1004.73 1005.15 1005.78 1006.59 1007.53 1008.55 1009.58 1010.57 1011.48 1012.32 1013.07 1013.77 1014.46 1015.16 1015.88 1016.63 1017.39 1018.16 1018.89 1019.58 1020.19 1020.73 1021.19 1021.59 1021.95 1022.28 1022.60
1016.62 1016.80 1016.88 1016.78 1016.42 1015.75 1014.79 1013.58 1012.22 1010.81 1009.47 1008.27 1007.28 1006.50 1005.91 1005.48 1005.14 1004.86 1004.62 1004.43 1004.30 1004.28 1004.42 1004.75 1005.28 1005.99 1006.85 1007.79 1008.76 1009.72 1010.62 1011.45 1012.21 1012.94 1013.65 1014.36 1015.10 1015.87 1016.65 1017.42 1018.16 1018.85 1019.47 1020.02 1020.50 1020.93 1021.33 1021.71 1022.08
1016.27 1016.56 1016.73 1016.67 1016.32 1015.61 1014.58 1013.28 1011.81 1010.31 1008.89 1007.66 1006.66 1005.92 1005.41 1005.08 1004.85 1004.69 1004.54 1004.41 1004.32 1004.30 1004.40 1004.66 1005.09 1005.69 1006.43 1007.26 1008.13 1009.00 1009.83 1010.62 1011.36 1012.08 1012.79 1013.52 1014.28 1015.06 1015.86 1016.64 1017.39 1018.09 1018.72 1019.29 1019.80 1020.25 1020.69 1021.12 1021.54
1015.93 1016.28 1016.49 1016.45 1016.08 1015.33 1014.23 1012.85 1011.31 1009.75 1008.30 1007.07 1006.10 1005.43 1005.00 1004.78 1004.68 1004.63 1004.60 1004.56 1004.53 1004.54 1004.64 1004.84 1005.19 1005.68 1006.28 1006.97 1007.70 1008.44 1009.17 1009.87 1010.55 1011.23 1011.93 1012.66 1013.42 1014.22 1015.04 1015.84 1016.61 1017.33 1017.98 1018.57 1019.11 1019.60 1020.07 1020.54 1021.00
1015.55 1015.92 1016.13 1016.07 1015.65 1014.86 1013.72 1012.31 1010.76 1009.20 1007.77 1006.58 1005.68 1005.09 1004.76 1004.64 1004.66 1004.73 1004.81 1004.87 1004.91 1004.96 1005.06 1005.23 1005.51 1005.88 1006.35 1006.88 1007.45 1008.04 1008.63 1009.21 1009.80 1010.42 1011.08 1011.80 1012.57 1013.38 1014.21 1015.04 1015.84 1016.58 1017.26 1017.88 1018.44 1018.97 1019.48 1019.98 1020.48
1015.11 1015.44 1015.60 1015.49 1015.04 1014.22 1013.08 1011.70 1010.20 1008.72 1007.39 1006.30 1005.50 1005.01 1004.78 1004.76 1004.86 1005.02 1005.18 1005.32 1005.42 1005.52 1005.62 1005.77 1005.98 1006.25 1006.58 1006.96 1007.36 1007.77 1008.20 1008.65 1009.14 1009.68 1010.29 1010.97 1011.73 1012.55 1013.39 1014.24 1015.06 1015.83 1016.54 1017.18 1017.78 1018.35 1018.89 1019.42 1019.96
1014.57 1014.83 1014.91 1014.73 1014.25 1013.44 1012.36 1011.08 1009.72 1008.40 1007.24 1006.31 1005.66 1005.29 1005.16 1005.20 1005.36 1005.57 1005.76 1005.93 1006.06 1006.17 1006.27 1006.38 1006.52 1006.70 1006.90 1007.12 1007.35 1007.60 1007.87 1008.17 1008.54 1008.99 1009.53 1010.18 1010.91 1011.72 1012.56 1013.42 1014.25 1015.04 1015.77 1016.44 1017.07 1017.67 1018.25 1018.83 1019.40
1013.95 1014.09 1014.08 1013.85 1013.36 1012.62 1011.66 1010.56 1009.42 1008.35 1007.42 1006.71 1006.24 1006.00 1005.95 1006.04 1006.20 1006.40 1006.57 1006.72 1006.82 1006.90 1006.96 1007.02 1007.09 1007.16 1007.24 1007.31 1007.39 1007.47 1007.58 1007.75 1007.99 1008.34 1008.81 1009.40 1010.10 1010.88 1011.70 1012.55 1013.37 1014.16 1014.90 1015.60 1016.26 1016.89 1017.52 1018.14 1018.76
1013.29 1013.33 1013.24 1012.97 1012.52 1011.88 1011.10 1010.25 1009.41 1008.64 1008.01 1007.55 1007.28 1007.17 1007.18 1007.28 1007.40 1007.53 1007.62 1007.68 1007.71 1007.71 1007.70 1007.68 1007.65 1007.61 1007.56 1007.50 1007.42 1007.35 1007.32 1007.35 1007.47 1007.72 1008.11 1008.63 1009.27 1010.00 1010.78 1011.59 1012.39 1013.16 1013.90 1014.60 1015.28 1015.95 1016.62 1017.30 1017.98
1012.73 1012.68 1012.53 1012.26 1011.87 1011.38 1010.83 1010.27 1009.75 1009.31 1009.00 1008.80 1008.72 1008.72 1008.78 1008.84 1008.89 1008.90 1008.87 1008.80 1008.70 1008.59 1008.46 1008.34 1008.20 1008.04 1007.86 1007.66 1007.44 1007.23 1007.05 1006.95 1006.96 1007.11 1007.40 1007.84 1008.41 1009.07 1009.79 1010.54 1011.29 1012.03 1012.74 1013.44 1014.13 1014.83 1015.55 1016.29 1017.05
Thickness
5738 5737 5735 5724 5700 5675 5679 5692 5703 5709 5716 5721 5718 5712 5710 5707 5702 5708 5726 5729 5729 5727 5723 5720 5718 5716 5714 5712 5710 5708 5707 5705 5704 5703 5701 5700 5700 5699 5698 5699 5699 5700 5701 5700 5700 5701 5702 5702 5703
5737 5736 5727 5709 5683 5671 5678 5696 5702 5711 5721 5722 5720 5718 5716 5715 5722 5726 5726 5727 5727 5726 5723 5720 5717 5715 5714 5712 5710 5709 5708 5707 5705 5702 5701 5699 5698 5697 5697 5696 5696 5697 5697 5696 5697 5697 5698 5699 5699
5737 5733 5715 5696 5681 5677 5694 5710 5710 5719 5721 5720 5719 5718 5719 5723 5726 5728 5730 5728 5725 5723 5721 5719 5716 5714 5712 5711 5709 5707 5706 5705 5704 5701 5699 5698 5697 5696 5695 5694 5694 5694 5693 5693 5694 5695 5695 5696 5696
5732 5720 5706 5691 5690 5693 5703 5717 5720 5720 5721 5721 5718 5716 5721 5732 5733 5733 5731 5727 5723 5721 5719 5716 5714 5712 5710 5707 5706 5704 5703 5702 5701 5699 5697 5695 5694 5693 5692 5691 5691 5691 5690 5691 5691 5692 5692 5692 5692
5723 5709 5698 5686 5692 5703 5710 5716 5718 5718 5720 5721 5718 5716 5720 5734 5734 5732 5729 5726 5722 5718 5716 5714 5712 5710 5707 5704 5702 5701 5699 5698 5697 5696 5694 5692 5690 5689 5688 5688 5687 5687 5686 5687 5687 5687 5687 5687 5687
5708 5698 5685 5680 5692 5704 5713 5721 5719 5717 5718 5720 5717 5716 5724 5732 5730 5728 5726 5724 5721 5716 5713 5711 5709 5707 5704 5702 5700 5698 5696 5694 5692 5691 5690 5688 5686 5685 5684 5684 5684 5684 5683 5683 5682 5682 5681 5681 5682
5702 5691 5685 5687 5689 5701 5718 5719 5718 5719 5717 5719 5720 5717 5727 5733 5730 5726 5723 5719 5717 5714 5712 5709 5707 5705 5702 5699 5696 5695 5693 5690 5688 5686 5685 5683 5682 5682 5680 5680 5680 5680 5679 5678 5677 5676 5676 5676 5676
5704 5691 5690 5683 5688 5699 5719 5717 5722 5721 5720 5724 5720 5716 5722 5732 5725 5721 5717 5715 5713 5712 5710 5708 5706 5704 5701 5697 5695 5692 5690 5687 5684 5682 5680 5678 5677 5677 5676 5675 5675 5675 5674 5673 5672 5672 5672 5672 5672
5705 5684 5679 5685 5690 5703 5719 5719 5725 5726 5722 5721 5720 5723 5729 5722 5717 5714 5711 5708 5708 5709 5710 5709 5706 5703 5700 5697 5693 5690 5687 5683 5680 5678 5675 5673 5672 5671 5670 5670 5670 5669 5668 5667 5666 5665 5665 5666 5666
5693 5679 5686 5696 5698 5707 5715 5716 5720 5720 5716 5716 5719 5723 5721 5715 5712 5711 5709 5709 5709 5710 5710 5708 5706 5703 5699 5695 5692 5688 5685 5681 5678 5675 5672 5669 5667 5665 5665 5664 5664 5663 5662 5660 5659 5658 5657 5658 5658
5692 5688 5696 5700 5701 5706 5708 5712 5715 5713 5710 5713 5717 5725 5720 5711 5707 5709 5711 5713 5716 5715 5709 5706 5704 5701 5697 5694 5690 5686 5683 5679 5675 5672 5668 5665 5662 5660 5659 5658 5657 5655 5654 5653 5651 5650 5650 5650 5649
5688 5694 5697 5702 5705 5704 5704 5706 5707 5706 5719 5728 5724 5725 5718 5709 5709 5712 5714 5716 5714 5710 5708 5704 5700 5697 5694 5691 5687 5684 5680 5676 5673 5670 5666 5662 5658 5655 5653 5651 5649 5647 5646 5645 5644 5643 5642 5641 5641
5685 5693 5698 5699 5696 5694 5693 5693 5695 5707 5728 5726 5720 5718 5717 5713 5713 5715 5716 5716 5711 5709 5706 5702 5697 5694 5691 5688 5684 5681 5678 5675 5671 5667 5663 5659 5655 5651 5647 5644 5642 5640 5639 5638 5636 5636 5635 5634 5633
5688 5688 5693 5696 5694 5692 5688 5694 5690 5714 5724 5718 5717 5715 5716 5716 5717 5714 5711 5712 5711 5711 5708 5701 5696 5693 5689 5687 5684 5681 5676 5672 5668 5665 5661 5656 5652 5647 5643 5638 5635 5633 5631 5629 5628 5627 5626 5625 5623
5683 5679 5687 5694 5689 5686 5678 5677 5697 5717 5711 5708 5714 5714 5715 5717 5718 5718 5721 5720 5719 5716 5710 5704 5699 5691 5688 5685 5682 5678 5673 5668 5664 5660 5656 5652 5648 5643 5639 5634 5630 5627 5623 5620 5618 5617 5616 5615 5614
5671 5665 5666 5692 5688 5683 5672 5673 5718 5716 5704 5703 5710 5713 5715 5721 5722 5725 5727 5726 5725 5719 5713 5708 5701 5694 5689 5684 5679 5674 5669 5665 5662 5657 5651 5647 5643 5639 5634 5629 5624 5620 5616 5613 5611 5609 5607 5605 5605
5652 5643 5647 5671 5686 5677 5664 5665 5705 5710 5700 5697 5704 5709 5712 5720 5729 5733 5730 5729 5728 5723 5717 5710 5704 5699 5692 5684 5677 5671 5666 5661 5658 5653 5647 5642 5638 5635 5631 5625 5619 5614 5609 5606 5605 5602 5601 5598 5596
5637 5633 5635 5647 5674 5664 5650 5657 5683 5698 5694 5694 5699 5705 5710 5717 5733 5742 5737 5731 5726 5722 5718 5712 5706 5701 5691 5679 5670 5664 5658 5655 5651 5647 5643 5638 5633 5629 5625 5620 5614 5609 5604 5600 5598 5596 5593 5590 5587
5640 5634 5633 5646 5662 5652 5652 5661 5672 5685 5690 5698 5704 5706 5712 5721 5735 5739 5737 5729 5721 5717 5713 5710 5704 5698 5687 5677 5670 5663 5658 5654 5649 5646 5642 5636 5630 5624 5619 5614 5608 5604 5600 5597 5594 5590 5585 5582 5580
5626 5618 5627 5641 5648 5640 5645 5658 5668 5677 5687 5699 5707 5712 5717 5721 5726 5733 5733 5721 5712 5710 5709 5707 5703 5696 5689 5683 5676 5668 5659 5651 5647 5641 5635 5630 5625 5619 5613 5608 5603 5598 5594 5589 5587 5584 5579 5576 5574
5620 5617 5624 5630 5635 5631 5630 5649 5657 5675 5686 5694 5701 5708 5714 5712 5714 5721 5719 5713 5707 5705 5705 5705 5701 5693 5686 5678 5666 5656 5646 5640 5635 5631 5627 5623 5620 5615 5611 5604 5599 5593 5589 5585 5581 5578 5577 5571 5565
5621 5626 5624 5620 5608 5605 5616 5632 5652 5669 5675 5683 5694 5701 5705 5705 5702 5702 5705 5707 5706 5706 5704 5700 5695 5688 5680 5671 5664 5658 5653 5650 5645 5638 5629 5622 5617 5612 5606 5600 5594 5588 5583 5578 5574 5571 5570 5567 5559
5616 5620 5613 5609 5600 5592 5596 5604 5650 5654 5653 5668 5684 5693 5694 5691 5690 5693 5696 5699 5701 5699 5695 5692 5687 5681 5673 5666 5660 5654 5651 5646 5637 5627 5620 5612 5607 5603 5599 5593 5587 5582 5577 5573 5568 5564 5561 5560 5555
5609 5605 5598 5583 5584 5584 5594 5602 5637 5640 5649 5660 5670 5673 5674 5675 5676 5680 5684 5686 5686 5683 5681 5679 5675 5670 5663 5657 5652 5647 5642 5633 5624 5618 5611 5603 5597 5593 5591 5587 5583 5578 5573 5568 5563 5557 5553 5550 5548
5595 5585 5569 5569 5565 5582 5596 5598 5627 5641 5653 5657 5658 5656 5655 5652 5653 5658 5662 5667 5668 5666 5663 5662 5661 5657 5651 5646 5642 5638 5632 5627 5621 5614 5607 5600 5592 5588 5584 5580 5576 5572 5567 5562 5555 5549 5544 5540 5537
5578 5574 5563 5555 5556 5573 5578 5587 5631 5644 5647 5645 5641 5638 5635 5634 5633 5637 5638 5638 5641 5643 5642 5642 5642 5641 5638 5635 5631 5625 5620 5617 5613 5606 5602 5596 5592 5587 5579 5572 5567 5563 5557 5552 5546 5540 5534 5530 5526
5566 5563 5569 5554 5548 5546 5573 5589 5619 5635 5635 5634 5630 5625 5620 5618 5620 5620 5618 5614 5615 5615 5615 5617 5619 5618 5618 5617 5615 5612 5609 5606 5602 5597 5592 5587 5583 5577 5571 5564 5559 5553 5548 5543 5536 5530 5524 5519 5515
5561 5555 5529 5537 5523 5526 5553 5575 5610 5627 5619 5614 5609 5604 5602 5604 5604 5601 5596 5591 5589 5587 5587 5589 5590 5591 5592 5593 5593 5595 5593 5592 5589 5585 5582 5578 5573 5568 5561 5555 5550 5544 5539 5534 5528 5521 5514 5508 5503
5538 5535 5533 5524 5512 5510 5514 5554 5608 5605 5600 5588 5581 5578 5577 5575 5572 5567 5564 5564 5565 5566 5565 5566 5566 5567 5568 5570 5572 5575 5576 5573 5572 5571 5571 5569 5563 5558 5553 5548 5542 5536 5531 5526 5521 5515 5507 5500 5493
5533 5531 5526 5515 5510 5509 5507 5524 5584 5582 5568 5549 5539 5535 5531 5529 5529 5531 5534 5537 5540 5542 5543 5544 5546 5547 5549 5553 5556 5560 5561 5560 5559 5560 5559 5555 5553 5548 5544 5538 5533 5529 5524 5519 5515 5509 5500 5493 5486